Flag for Canada Weather past 2 weeks in Whitby, Ontario, Canada

Now
30 °F

Clear.


Feels Like: 30 °F
Forecast: 35 / 51 °F
Wind: 2 mph from Northeast

Location: Toronto Buttonville


UV Index: 5 (Moderate)

Visibility: 15 mi


Pressure: 30.43 "Hg

Humidity: 86%

Dew point: 27 °F

Location of WhitbyLocation

Historic Weather in Whitby

°F

Whitby temperature yesterday

Maximum temperature yesterday: 54 °F (at 4:00 PM)
Minimum temperature yesterday: 32 °F (at 6:00 AM)
Average temperature yesterday: 42 °F

Past Weeks' High & Low Weather Summary

 TemperatureHumidityPressure
High70 °F (Apr 13, 5:00 PM)100% (Apr 8, 2:00 AM)30.58 "Hg (Apr 8, 2:00 AM)
Low19 °F (Apr 16, 5:00 AM)25% (Apr 11, 2:00 PM)29.33 "Hg (Apr 8, 6:00 AM)
Average42 °F66%30.02 "Hg
* Reported Apr 5 4:00 AM — Apr 20 4:00 AM, Whitby, Weather by CustomWeather, © 2014

Note: Actual official high and low records may vary slightly from our data, if they occured in-between our weather recording intervals... More about our weather records

Advertising

Historic Weather Conditions — Data for Previous 24 hours

 ConditionsComfort  
Time TempWeatherWind HumidityBarometerVisibility
4:00 AM
Apr 20
32 °FClear.No wind87%30.44 "Hg15 mi
3:00 AM32 °FClear.2 mph87%30.43 "Hg15 mi
2:00 AM34 °FClear.No wind81%30.43 "Hg15 mi
1:00 AM36 °FClear.No wind81%30.44 "Hg15 mi
12:00 AM36 °FClear.2 mph81%30.44 "Hg15 mi
11:00 PM
Apr 19
39 °FClear.No wind70%30.42 "Hg15 mi
10:00 PM41 °FClear.No wind61%30.42 "Hg15 mi
9:00 PM45 °FPassing clouds.5 mph53%30.41 "Hg15 mi
8:00 PM48 °FPassing clouds.3 mph46%30.41 "Hg15 mi
7:00 PM50 °FPassing clouds.6 mph47%30.42 "Hg15 mi
6:00 PM52 °FPassing clouds.10 mph44%30.42 "Hg15 mi
5:00 PM54 °FPassing clouds.9 mph38%30.41 "Hg15 mi
4:00 PM54 °FPassing clouds.5 mph41%30.43 "Hg15 mi
3:00 PM52 °FPassing clouds.5 mph44%30.44 "Hg15 mi
2:00 PM50 °FPassing clouds.8 mph47%30.46 "Hg15 mi
1:00 PM46 °FPassing clouds.8 mph46%30.47 "Hg15 mi
12:00 PM46 °FPassing clouds.10 mph46%30.47 "Hg15 mi
11:00 AM45 °FPassing clouds.10 mph57%30.48 "Hg15 mi
10:00 AM39 °FPassing clouds.9 mph70%30.48 "Hg15 mi
9:00 AM37 °FPassing clouds.9 mph75%30.47 "Hg15 mi
8:00 AM36 °FSunny.9 mph81%30.45 "Hg15 mi
7:00 AM32 °FClear.8 mph87%30.42 "Hg15 mi
6:00 AM32 °FClear.7 mph87%30.39 "Hg15 mi
5:00 AM34 °FClear.8 mph81%30.36 "Hg15 mi
Weather by CustomWeather, © 2014

See weather overview